GW4004 Weather Reports


time (UTC)temp
C
wind
direction
speed
KPH
gust
KPH
rain 1hr
cm
rain 24hr
cm
rain mn
cm
humidity
%
barometer
mb
20260510230746 25 353 4.8 8.0 0.00 0.00 0.00 74 1015.3
20260510230242 26 295 4.8 8.0 0.00 0.00 0.00 73 1015.6
20260510225739 26 306 6.4 8.0 0.00 0.00 0.00 71 1015.4
20260510225234 26 293 4.8 11.3 0.00 0.00 0.00 71 1015.5
20260510224730 26 266 6.4 11.3 0.00 0.00 0.00 69 1015.4
20260510224227 26 13 8.0 11.3 0.00 0.00 0.00 70 1015.4
20260510223725 26 359 9.7 12.9 0.00 0.00 0.00 71 1015.4
20260510223222 27 19 9.7 11.3 0.00 0.00 0.00 70 1015.6
20260510222719 27 276 6.4 11.3 0.00 0.00 0.00 66 1015.3
20260510222216 27 336 6.4 12.9 0.00 0.00 0.00 67 1015.2
20260510221711 27 358 6.4 11.3 0.00 0.00 0.00 67 1015.3
20260510221208 27 253 6.4 8.0 0.00 0.00 0.00 67 1015.1
20260510220706 27 298 8.0 12.9 0.00 0.00 0.00 65 1015.0
20260510220205 28 333 6.4 12.9 0.00 0.00 0.00 66 1015.1
20260510215703 28 324 6.4 11.3 0.00 0.00 0.00 65 1015.1
20260510215201 28 13 6.4 11.3 0.00 0.00 0.00 64 1015.1
20260510214658 28 10 8.0 11.3 0.00 0.00 0.00 62 1015.1
20260510214154 28 207 6.4 12.9 0.00 0.00 0.00 62 1015.0
20260510213651 28 42 11.3 16.1 0.00 0.00 0.00 63 1015.3
20260510213148 28 239 8.0 11.3 0.00 0.00 0.00 64 1015.2
20260510212644 28 17 8.0 16.1 0.00 0.00 0.00 63 1015.1
20260510212142 30 0 9.7 16.1 0.00 0.00 0.00 61 1015.0
20260510211639 30 352 8.0 12.9 0.00 0.00 0.00 62 1014.9
20260510211138 29 273 8.0 8.0 0.00 0.00 0.00 65 1015.0
20260510210635 29 11 8.0 12.9 0.00 0.00 0.00 65 1015.1
20260510210130 29 281 6.4 11.3 0.00 0.00 0.00 65 1015.0
20260510205630 29 295 6.4 8.0 0.00 0.00 0.00 65 1015.2
20260510205126 29 34 11.3 16.1 0.00 0.00 0.00 63 1014.9
20260510204622 30 306 11.3 12.9 0.00 0.00 0.00 63 1015.0
20260510204119 30 358 8.0 12.9 0.00 0.00 0.00 62 1015.0
20260510203615 30 348 6.4 11.3 0.00 0.00 0.00 64 1014.9
20260510203113 30 4 8.0 12.9 0.00 0.00 0.00 62 1015.1
20260510202612 30 358 11.3 16.1 0.00 0.00 0.00 63 1015.1
20260510202108 30 1 9.7 12.9 0.00 0.00 0.00 65 1014.9
20260510201606 30 7 11.3 12.9 0.00 0.00 0.00 62 1015.1
20260510201102 30 324 8.0 16.1 0.00 0.00 0.00 61 1015.0
20260510200558 31 298 6.4 12.9 0.00 0.00 0.00 62 1015.3
20260510200056 31 234 3.2 8.0 0.00 0.00 0.00 59 1015.2
20260510195554 31 202 1.6 4.8 0.00 0.00 0.00 57 1015.0
20260510195049 31 18 8.0 11.3 0.00 0.00 0.00 61 1015.0
20260510194544 31 202 3.2 8.0 0.00 0.00 0.00 56 1015.1
20260510194042 31 228 4.8 12.9 0.00 0.00 0.00 55 1015.3
20260510193541 30 203 3.2 6.4 0.00 0.00 0.00 60 1015.3
20260510193037 31 338 8.0 11.3 0.00 0.00 0.00 62 1015.2
20260510192537 30 268 4.8 8.0 0.00 0.00 0.00 61 1015.3
20260510192034 30 199 1.6 8.0 0.00 0.00 0.00 62 1015.3
20260510191530 30 214 3.2 6.4 0.00 0.00 0.00 62 1015.5
20260510191027 31 306 6.4 11.3 0.00 0.00 0.00 60 1015.4
20260510190524 30 189 4.8 6.4 0.00 0.00 0.00 58 1015.4
20260510190022 31 31 6.4 8.0 0.00 0.00 0.00 61 1015.6
20260510185518 31 201 3.2 6.4 0.00 0.00 0.00 59 1015.5
20260510185016 30 200 3.2 8.0 0.00 0.00 0.00 64 1015.5
20260510184513 30 238 3.2 6.4 0.00 0.00 0.00 61 1015.8
20260510184008 30 212 3.2 8.0 0.00 0.00 0.00 61 1015.8
20260510183504 30 249 4.8 8.0 0.00 0.00 0.00 62 1015.5
20260510182959 31 330 4.8 8.0 0.00 0.00 0.00 58 1015.7
20260510182456 30 189 8.0 8.0 0.00 0.00 0.00 60 1015.8
20260510181951 30 203 3.2 6.4 0.00 0.00 0.00 56 1016.0
20260510181450 30 210 0.0 4.8 0.00 0.00 0.00 60 1016.1
20260510180945 30 280 6.4 11.3 0.00 0.00 0.00 63 1015.8
20260510180443 30 202 4.8 11.3 0.00 0.00 0.00 60 1015.9
20260510175939 29 222 3.2 6.4 0.00 0.00 0.00 63 1016.0
20260510175435 29 252 3.2 6.4 0.00 0.00 0.00 64 1016.0
20260510174931 30 205 1.6 8.0 0.00 0.00 0.00 63 1016.0
20260510174429 29 257 4.8 6.4 0.00 0.00 0.00 66 1016.0
20260510173925 28 346 4.8 6.4 0.00 0.00 0.00 66 1016.2
20260510173421 29 236 4.8 6.4 0.00 0.00 0.00 65 1016.1
20260510172918 30 200 3.2 11.3 0.00 0.00 0.00 61 1016.3
20260510172414 30 191 8.0 8.0 0.00 0.00 0.00 61 1016.2
20260510171910 30 196 6.4 12.9 0.00 0.00 0.00 58 1016.3
20260510171408 30 195 8.0 11.3 0.00 0.00 0.00 58 1016.3
20260510170904 29 198 1.6 4.8 0.00 0.00 0.00 61 1016.4
20260510170401 30 204 3.2 6.4 0.00 0.00 0.00 60 1016.2
20260510165856 30 202 0.0 6.4 0.00 0.00 0.00 58 1016.5
20260510165353 30 201 3.2 4.8 0.00 0.00 0.00 58 1016.5
20260510164850 30 201 1.6 4.8 0.00 0.00 0.00 59 1016.5
20260510164347 29 200 1.6 4.8 0.00 0.00 0.00 62 1016.5
20260510163846 28 201 3.2 6.4 0.00 0.00 0.00 63 1016.6
20260510163344 28 199 3.2 4.8 0.00 0.00 0.00 64 1016.4
20260510162843 28 201 3.2 8.0 0.00 0.00 0.00 61 1016.6
20260510162341 29 200 1.6 4.8 0.00 0.00 0.00 62 1016.7
20260510161836 28 213 0.0 1.6 0.00 0.00 0.00 68 1016.7
20260510161333 27 227 0.0 1.6 0.00 0.00 0.00 67 1016.7
20260510160830 27 240 3.2 6.4 0.00 0.00 0.00 67 1016.6
20260510160327 27 237 3.2 4.8 0.00 0.00 0.00 68 1016.4
20260510155826 27 246 3.2 4.8 0.00 0.00 0.00 70 1016.5
20260510155324 27 209 0.0 6.4 0.00 0.00 0.00 69 1016.6
20260510154819 28 262 3.2 4.8 0.00 0.00 0.00 70 1016.7
20260510154310 27 212 1.6 4.8 0.00 0.00 0.00 70 1016.6
20260510153809 27 217 1.6 4.8 0.00 0.00 0.00 71 1016.6
20260510153306 27 198 0.0 1.6 0.00 0.00 0.00 72 1016.8
20260510152802 26 198 1.6 1.6 0.00 0.00 0.00 72 1016.8
20260510152259 26 197 4.8 6.4 0.00 0.00 0.00 70 1016.7
20260510151756 26 204 4.8 8.0 0.00 0.00 0.00 71 1016.7
20260510151254 26 200 6.4 8.0 0.00 0.00 0.00 72 1016.6
20260510150749 25 185 8.0 8.0 0.00 0.00 0.00 76 1016.6
20260510150246 25 197 3.2 6.4 0.00 0.00 0.00 75 1016.8
20260510145741 25 194 1.6 4.8 0.00 0.00 0.00 76 1016.8
20260510145238 25 199 1.6 4.8 0.00 0.00 0.00 78 1017.1
20260510144734 25 200 1.6 4.8 0.00 0.00 0.00 79 1017.0
20260510144232 25 210 0.0 1.6 0.00 0.00 0.00 78 1017.1
20260510143726 25 214 1.6 1.6 0.00 0.00 0.00 81 1016.9
20260510143223 25 193 0.0 8.0 0.00 0.00 0.00 77 1017.0
20260510142719 25 209 0.0 0.0 0.00 0.00 0.00 82 1016.9
20260510142215 24 196 0.0 1.6 0.00 0.00 0.00 80 1016.8
20260510141713 23 229 1.6 1.6 0.00 0.00 0.00 85 1016.8
20260510141212 23 199 1.6 6.4 0.00 0.00 0.00 84 1016.9
20260510140708 23 223 0.0 1.6 0.00 0.00 0.00 90 1016.7
20260510140207 22 229 0.0 1.6 0.00 0.00 0.00 91 1016.6
20260510135702 22 201 0.0 1.6 0.00 0.00 0.00 91 1016.5
20260510135158 22 194 4.8 6.4 0.00 0.00 0.00 92 1016.4
20260510134656 21 196 6.4 6.4 0.00 0.00 0.00 94 1016.6
20260510134153 21 204 0.0 0.0 0.00 0.00 0.00 96 1016.4
20260510133649 21 187 3.2 4.8 0.00 0.00 0.00 97 1016.4
20260510133144 21 200 0.0 8.0 0.00 0.00 0.00 97 1016.4
20260510132641 21 206 0.0 0.0 0.00 0.00 0.00 98 1016.4
20260510132138 21 206 0.0 0.0 0.00 0.00 0.00 98 1016.5
20260510131636 20 197 0.0 1.6 0.00 0.00 0.00 98 1016.7
20260510131133 20 198 0.0 6.4 0.00 0.00 0.00 98 1016.6
20260510130629 20 199 1.6 6.4 0.00 0.00 0.00 98 1016.5
20260510130127 20 196 1.6 6.4 0.00 0.00 0.00 99 1016.5
20260510125623 19 202 0.0 1.6 0.00 0.00 0.00 99 1016.4
20260510125119 19 199 3.2 4.8 0.00 0.00 0.00 99 1016.2
20260510124616 19 197 0.0 6.4 0.00 0.00 0.00 98 1016.1
20260510124113 19 196 0.0 0.0 0.00 0.00 0.00 99 1016.3
20260510123608 19 197 0.0 0.0 0.00 0.00 0.00 99 1016.2
20260510123105 18 197 0.0 0.0 0.00 0.00 0.00 99 1015.9
20260510122601 18 196 0.0 1.6 0.00 0.00 0.00 99 1016.1
20260510122057 18 196 0.0 4.8 0.00 0.00 0.00 98 1015.8
20260510121554 18 197 1.6 4.8 0.00 0.00 0.00 99 1015.7
20260510121051 18 198 0.0 1.6 0.00 0.00 0.00 98 1015.8
20260510120550 18 197 0.0 4.8 0.00 0.00 0.00 98 1015.6
20260510120050 18 201 0.0 1.6 0.00 0.00 0.00 98 1015.8
20260510115547 18 201 0.0 0.0 0.00 0.00 0.00 98 1015.5
20260510115044 18 201 0.0 1.6 0.00 0.00 0.00 98 1015.5
20260510114540 18 200 0.0 0.0 0.00 0.00 0.00 98 1015.6
20260510114036 18 200 1.6 1.6 0.00 0.00 0.00 98 1015.8
20260510113531 17 201 1.6 1.6 0.00 0.00 0.00 98 1015.6
20260510113029 17 201 0.0 0.0 0.00 0.00 0.00 98 1015.4
20260510112526 17 200 1.6 4.8 0.00 0.00 0.00 98 1015.2
20260510112022 17 193 3.2 4.8 0.00 0.00 0.00 98 1015.2
20260510111519 17 199 1.6 4.8 0.00 0.00 0.00 98 1015.1
20260510111015 17 210 1.6 1.6 0.00 0.00 0.00 98 1014.9
20260510110511 17 212 0.0 0.0 0.00 0.00 0.00 98 1014.7
20260510110008 17 212 0.0 0.0 0.00 0.00 0.00 98 1014.9
20260510105502 17 211 0.0 0.0 0.00 0.00 0.00 98 1014.6
20260510104958 17 212 0.0 0.0 0.00 0.00 0.00 98 1014.9
20260510104454 17 212 0.0 0.0 0.00 0.00 0.00 98 1014.6
20260510103951 17 212 0.0 0.0 0.00 0.00 0.00 98 1014.7
20260510103448 18 212 0.0 0.0 0.00 0.00 0.00 98 1014.5
20260510102944 18 212 0.0 0.0 0.00 0.00 0.00 98 1014.4
20260510102440 18 212 0.0 0.0 0.00 0.00 0.00 98 1014.5
20260510101937 18 209 0.0 0.0 0.00 0.00 0.00 98 1014.2
20260510101434 18 193 0.0 0.0 0.00 0.00 0.00 98 1014.2
20260510100932 18 192 1.6 1.6 0.00 0.00 0.00 98 1014.0
20260510100428 18 212 0.0 4.8 0.00 0.00 0.00 98 1014.0
20260510095925 18 213 0.0 0.0 0.00 0.00 0.00 98 1014.1
20260510095420 18 213 0.0 1.6 0.00 0.00 0.00 98 1014.0
20260510094919 18 213 0.0 0.0 0.00 0.00 0.00 98 1014.2
20260510094414 18 213 1.6 1.6 0.00 0.00 0.00 98 1014.2
20260510093911 18 213 0.0 1.6 0.00 0.00 0.00 98 1014.0
20260510093406 18 215 1.6 1.6 0.00 0.00 0.00 98 1013.9
20260510092904 18 215 0.0 0.0 0.00 0.00 0.00 98 1014.0
20260510092401 18 215 0.0 0.0 0.00 0.00 0.00 98 1013.9
20260510091901 18 216 0.0 1.6 0.00 0.00 0.00 98 1013.7
20260510091358 18 199 0.0 0.0 0.00 0.00 0.00 98 1013.5
20260510090855 18 199 0.0 0.0 0.00 0.00 0.00 98 1013.4
20260510090351 18 199 0.0 0.0 0.00 0.00 0.00 98 1013.0
20260510085847 18 199 1.6 1.6 0.00 0.00 0.00 98 1013.1
20260510085342 18 199 0.0 0.0 0.00 0.00 0.00 98 1013.1
20260510084838 18 199 0.0 1.6 0.00 0.00 0.00 98 1012.9
20260510084335 18 199 1.6 1.6 0.00 0.00 0.00 98 1013.1
20260510083832 18 196 1.6 4.8 0.00 0.00 0.00 98 1012.8
20260510083329 18 192 4.8 6.4 0.00 0.00 0.00 98 1013.1
20260510082824 18 193 3.2 4.8 0.00 0.00 0.00 98 1013.1
20260510082322 18 205 1.6 1.6 0.00 0.00 0.00 98 1013.3
20260510081820 18 205 0.0 1.6 0.00 0.00 0.00 98 1013.1
20260510081316 18 205 0.0 1.6 0.00 0.00 0.00 98 1013.0
20260510080812 18 205 1.6 1.6 0.00 0.00 0.00 98 1012.8
20260510080307 18 205 0.0 1.6 0.00 0.00 0.00 98 1013.0
20260510075805 18 205 1.6 1.6 0.00 0.00 0.00 98 1012.9
20260510075305 18 206 0.0 0.0 0.00 0.00 0.00 98 1012.8
20260510074759 18 204 0.0 0.0 0.00 0.00 0.00 98 1012.7
20260510074256 18 204 0.0 0.0 0.00 0.00 0.00 98 1012.9
20260510073752 18 204 0.0 0.0 0.00 0.00 0.00 98 1012.8
20260510073248 19 204 0.0 0.0 0.00 0.00 0.00 98 1012.9
20260510072743 19 204 0.0 0.0 0.00 0.00 0.00 98 1013.0
20260510072240 19 204 0.0 0.0 0.00 0.00 0.00 98 1013.0
20260510071737 19 204 0.0 0.0 0.00 0.00 0.00 98 1013.0
20260510071233 19 204 0.0 1.6 0.00 0.00 0.00 98 1013.2
20260510070732 19 204 0.0 0.0 0.00 0.00 0.00 98 1013.0
20260510070229 19 203 3.2 6.4 0.00 0.00 0.00 98 1013.0
20260510065723 19 199 1.6 1.6 0.00 0.00 0.00 98 1013.0
20260510065220 19 199 1.6 1.6 0.00 0.00 0.00 98 1012.6
20260510064717 19 199 0.0 0.0 0.00 0.00 0.00 98 1012.9
20260510064215 19 199 0.0 0.0 0.00 0.00 0.00 98 1012.7
20260510063711 19 199 1.6 1.6 0.00 0.00 0.00 98 1012.9
20260510063207 19 199 1.6 1.6 0.00 0.00 0.00 98 1013.2
20260510062704 19 199 0.0 0.0 0.00 0.00 0.00 98 1013.3
20260510062200 19 199 1.6 1.6 0.00 0.00 0.00 98 1013.4
20260510061655 19 199 0.0 0.0 0.00 0.00 0.00 98 1013.2
20260510061153 19 199 0.0 0.0 0.00 0.00 0.00 98 1013.3
20260510060649 19 199 0.0 0.0 0.00 0.00 0.00 98 1013.4
20260510060145 19 199 0.0 0.0 0.00 0.00 0.00 98 1013.4
20260510055642 19 199 0.0 0.0 0.00 0.00 0.00 98 1013.4
20260510055140 19 199 0.0 0.0 0.00 0.00 0.00 98 1013.4
20260510054635 19 198 1.6 1.6 0.00 0.00 0.00 98 1013.1
20260510054131 19 199 0.0 1.6 0.00 0.00 0.00 98 1012.9
20260510053630 19 199 0.0 0.0 0.00 0.00 0.00 98 1012.9
20260510053127 19 199 0.0 0.0 0.00 0.00 0.00 98 1012.9
20260510052623 19 199 0.0 0.0 0.00 0.00 0.00 98 1013.2
20260510052120 19 199 0.0 1.6 0.00 0.00 0.00 98 1013.3
20260510051615 19 199 0.0 0.0 0.00 0.00 0.00 98 1013.3
20260510051112 19 199 1.6 1.6 0.00 0.00 0.00 98 1013.3
20260510050609 19 199 0.0 0.0 0.00 0.00 0.00 98 1013.4
20260510050106 19 199 0.0 0.0 0.00 1.14 1.14 98 1013.6
20260510045604 19 199 0.0 0.0 0.00 1.14 1.14 98 1013.6
20260510045059 19 199 0.0 0.0 0.00 1.14 1.14 98 1013.7
20260510044556 19 199 0.0 0.0 0.00 1.14 1.14 98 1013.7
20260510044054 19 199 0.0 0.0 0.00 1.14 1.14 98 1013.5
20260510043549 19 199 0.0 0.0 0.00 1.14 1.14 97 1013.8
20260510043045 19 199 0.0 0.0 0.00 1.14 1.14 97 1013.8
20260510042544 19 199 0.0 0.0 0.00 1.14 1.14 97 1013.9
20260510042040 19 198 1.6 1.6 0.00 1.14 1.14 97 1013.7
20260510041537 19 200 0.0 0.0 0.00 1.14 1.14 97 1014.2
20260510041034 19 200 0.0 0.0 0.00 1.14 1.14 97 1014.3
20260510040531 19 200 0.0 1.6 0.00 1.14 1.14 97 1014.2
20260510040027 19 201 0.0 0.0 0.00 1.14 1.14 97 1014.2
20260510035523 19 201 0.0 0.0 0.00 1.14 1.14 97 1014.2
20260510035023 19 201 0.0 0.0 0.00 1.14 1.14 97 1014.4
20260510034522 20 201 0.0 0.0 0.00 1.14 1.14 97 1014.0
20260510034018 20 201 0.0 0.0 0.00 1.14 1.14 97 1013.9
20260510033513 20 201 0.0 0.0 0.00 1.14 1.14 97 1013.8
20260510033012 20 200 0.0 0.0 0.00 1.14 1.14 97 1013.8
20260510032508 20 200 0.0 1.6 0.00 1.14 1.14 97 1013.7
20260510032008 20 200 0.0 1.6 0.00 1.14 1.14 97 1013.7
20260510031504 20 199 0.0 1.6 0.00 1.14 1.14 97 1013.4
20260510031000 20 199 1.6 6.4 0.00 1.14 1.14 97 1013.4
20260510030455 20 198 1.6 4.8 0.00 1.14 1.14 97 1013.4
20260510025953 20 199 1.6 4.8 0.00 1.14 1.14 97 1013.5
20260510025450 20 198 3.2 4.8 0.00 1.14 1.14 97 1013.3
20260510024948 20 199 0.0 1.6 0.00 1.14 1.14 97 1013.4
20260510024444 20 200 1.6 1.6 0.00 1.14 1.14 97 1013.5
20260510023940 20 200 0.0 1.6 0.00 1.14 1.14 97 1013.4
20260510023436 20 200 0.0 0.0 0.00 1.14 1.14 97 1013.5
20260510022933 20 200 0.0 0.0 0.00 1.14 1.14 97 1013.6
20260510022432 20 200 0.0 0.0 0.00 1.14 1.14 97 1013.5
20260510021932 20 200 0.0 0.0 0.18 1.14 1.14 97 1013.7
20260510021430 20 200 0.0 1.6 0.18 1.14 1.14 97 1013.7
20260510020926 20 200 0.0 1.6 0.00 1.12 1.12 97 1013.6
20260510020421 20 200 1.6 1.6 0.00 1.12 1.12 97 1013.7
20260510015917 20 199 1.6 1.6 0.00 1.12 1.12 97 1013.7
20260510015413 20 200 0.0 0.0 0.00 1.12 1.12 97 1013.5
20260510014908 20 200 0.0 0.0 0.00 1.12 1.12 97 1013.5
20260510014406 20 200 0.0 0.0 0.00 1.12 1.12 97 1013.7
20260510013902 20 200 0.0 0.0 0.00 1.12 1.12 97 1013.8
20260510013357 20 200 0.0 0.0 0.00 1.12 1.12 97 1014.1
20260510012852 20 199 1.6 4.8 0.00 1.12 1.12 97 1014.2
20260510012347 20 203 3.2 8.0 0.00 1.12 1.12 97 1014.0
20260510011842 20 198 4.8 4.8 0.00 1.12 1.12 97 1013.6
20260510011338 20 200 0.0 0.0 0.00 1.12 1.12 97 1013.2
20260510010834 20 222 0.0 0.0 0.00 1.12 1.12 96 1013.0
20260510010332 20 223 0.0 0.0 0.00 1.12 1.12 96 1012.9
20260510005828 20 223 0.0 0.0 0.00 1.12 1.12 96 1013.1
20260510005325 20 223 0.0 0.0 0.00 1.12 1.12 96 1013.0
20260510004822 20 223 0.0 0.0 0.00 1.12 1.12 96 1012.9
20260510004320 20 223 0.0 0.0 0.00 1.12 1.12 96 1012.8
20260510003817 20 223 0.0 0.0 0.00 1.12 1.12 96 1012.9
20260510003314 20 223 0.0 0.0 0.00 1.12 1.12 96 1012.7
20260510002813 20 223 0.0 0.0 0.00 1.12 1.12 96 1012.6
20260510002310 20 223 0.0 0.0 0.00 1.12 1.12 96 1012.7
20260510001806 20 223 0.0 0.0 0.00 1.12 1.12 96 1012.7
20260510001305 20 218 0.0 1.6 0.00 1.12 1.12 96 1012.8
20260510000800 20 205 0.0 0.0 0.00 1.12 1.12 96 1012.6
20260510000258 20 205 0.0 0.0 0.00 1.12 1.12 95 1012.5
20260509235755 20 205 0.0 0.0 0.00 1.12 1.12 95 1012.6
20260509235252 20 205 0.0 1.6 0.00 1.12 1.12 95 1012.6
20260509234747 21 204 1.6 1.6 0.00 1.12 1.12 95 1012.4
20260509234244 21 201 0.0 1.6 0.00 1.12 1.12 95 1012.3
20260509233743 21 202 0.0 1.6 0.00 1.12 1.12 95 1012.6
20260509233240 21 203 0.0 0.0 0.00 1.12 1.12 94 1012.9
20260509232736 21 203 0.0 0.0 0.13 1.12 1.12 94 1013.0
20260509232233 21 203 0.0 0.0 0.13 1.12 1.12 94 1012.8
20260509231729 21 202 0.0 0.0 0.00 1.09 1.09 94 1012.8
20260509231227 21 202 0.0 0.0 0.00 1.09 1.09 94 1012.9